Weather History for KNQX - August, 2012

Change the Weather History Date:

Thursday, August 2, 2012

  Actual Average Record
Temperature  
Mean Temperature 86 °F -  
Max Temperature 91 °F 89 °F 98 °F (2013)
Min Temperature 82 °F 79 °F 74 °F (1985)
Cooling Degree Days 22    
Growing Degree Days 36 (Base 50)    
Moisture  
Dew Point 74 °F    
Average Humidity 68    
Maximum Humidity 79    
Minimum Humidity 55    
Precipitation  
Precipitation 0.00 in - - ()
Sea Level Pressure  
Sea Level Pressure 29.97 in    
Wind  
Wind Speed 4 mph (ESE)    
Max Wind Speed 7 mph    
Max Gust Speed -    
Visibility 10 miles    
Events      
Averages and records for this station are not official NWS values.
T = Trace of Precipitation, MM = Missing Value Source: NWS Daily Summary

Daily Weather History Graph

Daily Weather History Graph

Search for Another Location

Airport or City:

Trip Planner

Search our weather history database for the weather conditions in past years. The results will help you decide how hot, cold, wet, or windy it might be!

Date:

Astronomy

Aug. 02, 2012 Rise Set
Actual Time 6:55 AM EDT 8:09 PM EDT
Civil Twilight 6:31 AM EDT 8:34 PM EDT
Nautical Twilight 6:02 AM EDT 9:03 PM EDT
Astronomical Twilight 5:32 AM EDT 9:32 PM EDT
Moon 8:29 PM EDT (8/2) 7:21 AM EDT (8/2)
Length of Visible Light 14h 02m
Length of Day
13h 14m
Full, 100% of the Moon is Illuminated
Aug 2
Full
Aug 9
Last Quarter
Aug 17
New
Aug 24
First Quarter
Aug 31
Full

Hourly Weather History & Observations

Time (EDT) Temp. Heat Index Dew Point Humidity Pressure Visibility Wind Dir Wind Speed Gust Speed Precip Events Conditions
12:53 AM 82.9 °F 90.2 °F 75.0 °F 77% 30.01 in 10.0 mi ESE 5.8 mph - N/A   Partly Cloudy
1:53 AM 82.0 °F 88.6 °F 75.0 °F 79% 29.99 in 10.0 mi SE 3.5 mph - N/A   Clear
2:53 AM 82.0 °F 88.6 °F 75.0 °F 79% 29.96 in 10.0 mi SE 4.6 mph - N/A   Clear
3:53 AM 82.0 °F 87.9 °F 73.9 °F 76% 29.95 in 10.0 mi SE 4.6 mph - N/A   Clear
4:53 AM 82.0 °F 88.6 °F 75.0 °F 79% 29.94 in 10.0 mi SE 4.6 mph - N/A   Clear
5:53 AM 82.0 °F 88.6 °F 75.0 °F 79% 29.95 in 10.0 mi SE 4.6 mph - N/A   Partly Cloudy
6:11 AM 82.4 °F 88.2 °F 73.4 °F 74% 29.96 in 10.0 mi ESE 3.5 mph - N/A   Scattered Clouds
6:53 AM 82.0 °F 87.9 °F 73.9 °F 76% 29.96 in 10.0 mi ESE 4.6 mph - N/A   Scattered Clouds
7:53 AM 84.0 °F 92.6 °F 75.9 °F 76% 29.98 in 10.0 mi SE 3.5 mph - N/A   Scattered Clouds
9:53 AM 87.1 °F 94.5 °F 73.0 °F 63% 29.99 in 10.0 mi SSE 3.5 mph - N/A   Partly Cloudy
10:53 AM 90.0 °F 99.0 °F 73.9 °F 59% 30.00 in 10.0 mi Variable 3.5 mph - N/A   Partly Cloudy
11:53 AM 91.9 °F 101.3 °F 73.9 °F 55% 30.00 in 10.0 mi Variable 3.5 mph - N/A   Partly Cloudy
12:53 PM 89.1 °F 97.0 °F 73.0 °F 59% 30.00 in 10.0 mi Calm Calm - N/A   Partly Cloudy
1:53 PM 89.1 °F 98.0 °F 73.9 °F 61% 29.99 in 10.0 mi NNW 4.6 mph - N/A   Partly Cloudy
2:53 PM 89.1 °F 97.0 °F 73.0 °F 59% 29.98 in 10.0 mi South 5.8 mph - N/A   Partly Cloudy
3:53 PM 88.0 °F 96.5 °F 73.9 °F 63% 29.96 in 10.0 mi SSW 6.9 mph - N/A   Partly Cloudy
4:53 PM 87.1 °F 95.4 °F 73.9 °F 65% 29.94 in 10.0 mi Calm Calm - N/A   Scattered Clouds
5:53 PM 88.0 °F 96.5 °F 73.9 °F 63% 29.93 in 10.0 mi ENE 3.5 mph - N/A   Partly Cloudy
6:53 PM 89.1 °F 97.0 °F 73.0 °F 59% 29.95 in 10.0 mi NNE 3.5 mph - N/A   Partly Cloudy
7:53 PM 87.1 °F 95.4 °F 73.9 °F 65% 29.96 in 10.0 mi Calm Calm - N/A   Clear
8:53 PM 86.0 °F 93.0 °F 73.0 °F 65% 29.97 in 10.0 mi NE 3.5 mph - N/A   Partly Cloudy
9:53 PM 84.9 °F 92.1 °F 73.9 °F 69% 29.99 in 10.0 mi East 3.5 mph - N/A   Partly Cloudy
10:53 PM 84.9 °F 92.1 °F 73.9 °F 69% 29.99 in 10.0 mi ENE 4.6 mph - N/A   Clear
11:53 PM 84.0 °F 91.2 °F 73.9 °F 72% 29.99 in 10.0 mi ENE 3.5 mph - N/A   Clear